Miscellaneous Local Product
Issued by NWS Hastings, NE

Home | Current Version | Previous Version | Text Only | Print | Product List | Glossary Off
Versions: 1 2 3 4 5 6 7 8 9 10 11 12 13 14 15 16 17 18 19 20 21 22 23 24 25 26 27 28 29 30 31 32 33 34 35 36 37 38 39 40 41 42 43 44 45 46 47 48 49 50

000
AXUS43 KGID 270202
MISGRI

GID CWA HOURLY WEATHER ROUNDUP
NATIONAL WEATHER SERVICE HASTINGS NE
800 PM CST THU FEB 26 2015

NOTE: "FAIR" INDICATES FEW OR NO CLOUDS BELOW 12,000 FEET WITH NO
SIGNIFICANT WEATHER AND/OR OBSTRUCTIONS TO VISIBILITY.

...SOUTH CENTRAL NEBRASKA...

CITY           SKY/WX    TMP DP  RH WIND       PRES   REMARKS
GRAND ISLAND   CLEAR      5  -3  69 N8        30.50R WCI  -8
HASTINGS       CLEAR      6  -5  60 NE6       30.47R WCI  -4
KEARNEY        CLEAR      7  -6  56 NE7       30.46R WCI  -5
ORD            CLEAR      5  -5  63 N6        30.48R WCI  -6
YORK             N/A      5   0  78 N6        30.51R WCI  -6
AURORA         CLEAR      6  -4  64 N7        30.49R WCI  -6
LEXINGTON      CLEAR     11  -6  45 N8        30.44R WCI   0
HOLDREGE       CLEAR      6 -10  47 NE8       30.44R WCI  -6
HEBRON         CLEAR      9  -2  59 NE5       30.52R WCI   1

...NEBRASKA PANHANDLE...

CITY           SKY/WX    TMP DP  RH WIND       PRES   REMARKS
CHADRON        CLEAR      5  -4  66 CALM      30.38R
ALLIANCE       CLEAR      6  -1  73 N7        30.31S WCI  -6
SCOTTSBLUFF    PTCLDY    10   2  69 NE14      30.30R WCI  -6
SIDNEY         CLOUDY    11   1  64 E9        30.27R WCI  -2

...WESTERN AND NORTH CENTRAL NEBRASKA...

CITY           SKY/WX    TMP DP  RH WIND       PRES   REMARKS
VALENTINE      CLEAR      6  -3  66 N5        30.45R WCI  -3
AINSWORTH      CLEAR      4  -3  70 N3        30.44S
ONEILL         CLEAR      4  -3  72 NW7       30.48R WCI  -8
BROKEN BOW     CLEAR      4  -7  60 N7        30.44R WCI  -8
IMPERIAL         N/A     12   0  58 NE6       30.35R WCI   3
NORTH PLATTE   CLEAR      7  -6  55 NE9       30.40R WCI  -7
MCCOOK         CLEAR     14  -3  47 NE8       30.41R WCI   3

...EASTERN NEBRASKA...

CITY           SKY/WX    TMP DP  RH WIND       PRES   REMARKS
NORFOLK        CLEAR      4  -1  80 N6        30.51R WCI  -7
SO SIOUX CITY  CLEAR      5  -4  66 N10       30.56R WCI -10
TEKAMAH        CLEAR      3  -3  76 N6        30.56R WCI  -8
COLUMBUS       PTCLDY     5  -8  56 N3        30.53S
ALBION         CLEAR      6  -3  65 N3        30.49S
OMAHA EPPLEY   PTCLDY     7   0  73 N8        30.56R WCI  -6
MILLARD        CLEAR     10  -1  61 N6        30.55S WCI   0
LINCOLN        CLEAR      5  -1  76 N6        30.56R WCI  -6
NEBRASKA CITY  CLEAR      6  -4  62 N8        30.53R WCI  -6
BEATRICE       PTCLDY     7   0  70 N6        30.54R WCI  -3
FALLS CITY     CLEAR      6  -3  66 N6        30.56R WCI  -4

...NORTHERN KANSAS...

CITY           SKY/WX    TMP DP  RH WIND       PRES   REMARKS
GOODLAND       CLOUDY    17   5  59 E5        30.32R WCI  10
HILL CITY      CLEAR     11  -6  46 NE6       30.44R WCI   1
NORTON         CLEAR     12  -9  37 NE6       30.42R WCI   3
PHILLIPSBURG   CLEAR     16  -6  38 N6        30.47R WCI   7
HAYS           CLEAR     12  -8  40 NE6       30.45R WCI   3
RUSSELL        CLEAR     11  -6  46 NE6       30.45R WCI   1
CONCORDIA      CLEAR     11   0  61 NE7       30.51R WCI   0
SALINA         CLEAR     17  -3  41 NE12      30.52R WCI   4
TOPEKA         CLEAR     13   0  56 N9        30.56R WCI   1



USA.gov is the U.S. government's official web portal to all federal, state and local government web resources and services.